Location: Bailleul
(50.3375°N, 2.8513°E)
Time: 22:56:51
(UTC+00:00)

Cosmos 1850 Rocket - Visible Passes

Search period start: 23 October 2021 00:00
Search period end: 02 November 2021 00:00
Orbit: 754 x 786 km, 74.0° (Epoch: 23 October)

Date Brightness Start Highest point End Pass type
(mag) Time Alt. Az. Time Alt. Az. Time Alt. Az.
23 Oct 5.8 18:37:24 10° N 18:40:14 16° NE 18:40:14 16° NE visible
23 Oct 5.9 20:18:26 10° NNW 20:20:32 24° NNW 20:20:32 24° NNW visible
24 Oct 6.0 18:01:42 10° NNE 18:03:29 11° NE 18:04:23 11° NE visible
24 Oct 5.5 19:41:58 10° NNW 19:44:42 28° N 19:44:42 28° N visible
24 Oct 6.8 21:24:19 10° NW 21:24:59 13° NW 21:24:59 13° NW visible
25 Oct 5.3 19:05:34 10° N 19:08:53 27° NNE 19:08:53 27° NNE visible
25 Oct 6.3 20:47:29 10° NNW 20:49:11 20° NW 20:49:11 20° NW visible
26 Oct 5.4 18:29:17 10° N 18:33:06 22° NE 18:33:06 22° NE visible
26 Oct 5.6 20:10:48 10° NNW 20:13:25 30° NNW 20:13:25 30° NNW visible
27 Oct 5.7 17:53:10 10° N 17:56:23 16° NE 17:57:22 15° NE visible
27 Oct 5.0 19:34:13 10° NNW 19:37:40 40° N 19:37:40 40° N visible
27 Oct 6.9 21:17:13 10° NW 21:17:58 13° NW 21:17:58 13° NW visible
28 Oct 6.0 17:17:26 10° NNE 17:19:17 12° NE 17:21:07 10° NE visible
28 Oct 4.6 18:57:44 10° NNW 19:01:59 41° NNE 19:01:59 41° NNE visible
28 Oct 6.2 20:40:07 10° NW 20:42:18 22° NW 20:42:18 22° NW visible
29 Oct 4.8 18:21:21 10° N 18:26:05 31° NE 18:26:21 30° ENE visible
29 Oct 5.4 20:03:16 10° NNW 20:06:40 36° NW 20:06:40 36° NW visible
30 Oct 5.3 17:45:03 10° N 17:49:11 22° NE 17:50:47 19° ENE visible
30 Oct 4.3 19:26:35 10° NNW 19:31:07 64° NW 19:31:07 64° NW visible
30 Oct 6.9 21:10:44 10° WNW 21:11:26 11° WNW 21:11:26 11° WNW visible
31 Oct 5.7 17:08:56 10° N 17:12:11 16° NE 17:15:19 10° ENE visible
31 Oct 3.9 18:50:01 10° NNW 18:55:22 68° ENE 18:55:39 66° E visible
31 Oct 6.3 20:33:01 10° NW 20:35:58 20° W 20:35:58 20° W visible
01 Nov 4.3 18:13:31 10° NNW 18:18:40 45° ENE 18:20:18 35° ESE visible
01 Nov 5.5 19:55:54 10° NW 20:00:38 33° WSW 20:00:38 33° WSW visible
